Regional Weather Roundup
Issued by NWS

Home | Current Version | Previous Version | Graphics & Text | Print | Product List | Glossary On
Versions: 1 2 3 4 5 6 7 8 9 10 11 12 13 14 15 16 17 18 19 20 21 22 23 24 25 26 27 28 29 30 31 32 33 34 35 36 37 38 39 40 41 42 43 44 45 46 47 48 49 50
000
ASUS43 KLOT 201309
RWRIL

ILLINOIS REGIONAL WEATHER ROUNDUP
NATIONAL WEATHER SERVICE CHICAGO/ROMEOVILLE IL
800 AM CDT THU JUL 20 2017

NOTE: "FAIR" INDICATES FEW OR NO CLOUDS BELOW 12,000 FEET WITH NO
SIGNIFICANT WEATHER AND/OR OBSTRUCTIONS TO VISIBILITY.

* THESE STATIONS ARE NOT UNDER NWS QUALITY CONTROL. THEY ALSO MAY NOT
  REPORT WEATHER SUCH AS PRECIPITATION OR FOG.

ILZ001-002-007-009-015-016-024-201400-
NORTHWEST ILLINOIS

CITY           SKY/WX    TMP DP  RH WIND       PRES   REMARKS
MOLINE         LGT RAIN  75  70  84 E9        30.03R
STERLING*      CLOUDY    72  70  94 VRB3      30.04F
SAVANNA*       CLOUDY    70  69  97 S6        30.01S
$$

ILZ003-004-008-010-011-017-018-201400-
NORTH CENTRAL ILLINOIS

CITY           SKY/WX    TMP DP  RH WIND       PRES   REMARKS
ROCKFORD       CLOUDY    71  67  87 S14       30.03S
FREEPORT*      CLOUDY    68  67  98 SE9       30.03F
ROCHELLE*      CLOUDY    68  67  98 SE3       30.06F
DE KALB*       CLOUDY    67  67  98 SE10      30.07R
PERU*          TSTM      69  67  95 E7        30.09R
$$

ILZ005-006-012>014-019>023-201400-
NORTHEAST ILLINOIS

CITY           SKY/WX    TMP DP  RH WIND       PRES   REMARKS
CHICAGO-OHARE  TSTM      69  67  93 E10       30.05F FOG
CHICAGO-MIDWAY TSTM      71  69  93 N7        30.09R FOG
AURORA         LGT RAIN  70  69  97 S6        30.08F
LANSING*       CLOUDY    69  66  91 SE6       30.08S
JOLIET*        TSTM      71  71  97 SW3G18    30.10R
WAUKEGAN       DRIZZLE   68  67  96 S8        29.95F
DUPAGE AIRPORT RAIN      68  68 100 E13       30.01F FOG
WHEELING       LGT RAIN  69  69 100 S20       30.00F FOG
MORRIS*        TSTM      69  68  95 S8        30.09R
ROMEOVILLE*    TSTM      69  67  92 N6G20     30.11R
NORTHERLY ISL    N/A     69  67  93 N5          N/A
$$

LMZ740>746-201400-
SOUTHERN LAKE MICHIGAN

STATION/POSITION SKY/WX   TEMP    WIND        PRES    VSBY  WAVE
                          AIR SEA DIR/SP/G                  HT/PER
                          (F)     (DEG/KT/KT) (MB)    (MI)  (FT/S)
SOUTHERN BUOY              69 69  290/ 12/ 14 1017.0          2/ 4
WILMETTE HARBOR            69 71  330/ 14/ 19   N/A           1/ 2
HARRISON CRIB              69     130/  3/  3   N/A
BURNHAM HARBOR             69                   N/A
CALUMET HARBOR             69     130/  4/  5 1017.8R
BURNS HARBOR               69      70/  1/  3 1019.0F
MICHIGAN CITY              70     140/  3/  4   N/A
MICHIGAN CITY 6N           71 74  120/  4/  6   N/A           1/ 3
ST. JOSEPH                 71 74  270/  2/  4 1017.6F         2/ 3
$$

ILZ025>027-034>036-040-047-049-050-058-095>099-201400-
WEST-CENTRAL ILLINOIS

CITY           SKY/WX    TMP DP  RH WIND       PRES   REMARKS
QUINCY         SUNNY     81  71  71 SW8       30.04R HX  85
GALESBURG*     CLOUDY    76  72  85 S5        30.02S
MACOMB*        CLOUDY    78  70  78 S8        30.04F
JACKSONVILLE*  CLOUDY    78  71  77 SW7       30.06R HX  81
PITTSFIELD*    CLOUDY    80  72  75 SW8       30.07R HX  84
$$

ILZ028>032-037-038-041>044-048-051>054-059>061-201400-
CENTRAL ILLINOIS

CITY           SKY/WX    TMP DP  RH WIND       PRES   REMARKS
PONTIAC        CLOUDY    72  71  98 N10       30.11R
BLOOMINGTON    CLOUDY    74  71  91 CALM      30.08R
DECATUR        CLOUDY    79  73  82 SW10      30.06R HX  82
PEORIA         CLOUDY    77  73  87 SW7       30.03R
LACON*         TSTM      71  71  99 N7        30.08R
SPRINGFIELD    CLOUDY    80  74  81 SW7       30.05R HX  85
TAYLORVILLE    PTSUNNY   78  73  84 SW7       30.07R HX  81
$$

ILZ033-039-045-046-055>057-062-063-201400-
EAST-CENTRAL ILLINOIS

CITY           SKY/WX    TMP DP  RH WIND       PRES   REMARKS
CHAMPAIGN      CLOUDY    76  74  93 S7        30.06R FOG
RANTOUL*       CLOUDY    75  74  97 CALM      30.07R
MATTOON        MOSUNNY   80  75  84 SW8       30.07R HX  85
PARIS*         CLOUDY    78  75  91 SW6       30.08R
$$

ILZ079-100>102-201400-
SOUTHWEST ILLINOIS

CITY           SKY/WX    TMP DP  RH WIND       PRES   REMARKS
ALTON          MOSUNNY   81  73  78 SW6       30.09R HX  85
BELLEVILLE     CLOUDY    80  73  80 W5        30.09R HX  84
CAHOKIA*       CLOUDY    83  71  67 VRB3      30.08R HX  87
SPARTA*        CLOUDY    80  73  76 SW3       30.10R HX  85
$$

ILZ064>066-069>071-074>076-080>082-084>086-088>090-092>094-201400-
SOUTH-CENTRAL ILLINOIS

CITY           SKY/WX    TMP DP  RH WIND       PRES   REMARKS
CARBONDALE     MOSUNNY   79  77  94 S3        30.10R HX  83
CAIRO*         MOSUNNY   82  74  79 SW5       30.11R HX  87
EFFINGHAM*     CLOUDY    81  75  81 S6        30.09S HX  87
MARION         PTSUNNY   81  79  94 SW8       30.11R HX  89
MT. VERNON     CLOUDY    80  74  81 SW5       30.11R HX  85
CENTRALIA*     CLOUDY    81  74  80 SW5       30.09R HX  86
SALEM*         CLOUDY    82  73  74 SW5       30.10R HX  86
METROPOLIS*    SUNNY     81  75  83 SW3       30.12R HX  87
$$

ILZ067-068-072-073-078-083-087-091-201400-
SOUTHEAST ILLINOIS

CITY           SKY/WX    TMP DP  RH WIND       PRES   REMARKS
LAWRENCEVILLE  CLOUDY    78  75  90 SW7       30.09S FOG     HX  81
FLORA*         CLOUDY    81  75  80 SW7       30.10R HX  87
FAIRFIELD*     MOSUNNY   79  75  88 CALM      30.10R HX  82
HARRISBURG*    SUNNY     79  76  91 CALM      30.11R HX  83
ROBINSON*      CLOUDY    78  75  91 SW5       30.09S HX  80
CARMI*         SUNNY     78  76  92 CALM      30.10R HX  81
$$

ABBREVIATIONS USED IN REMARKS
   TC - TEMPERATURE IN CELSIUS
  WCI - WIND CHILL INDEX
   HX - HEAT INDEX
  VSB - VISIBILITY
$$





USA.gov is the U.S. government's official web portal to all federal, state and local government web resources and services.